sat.trackr.live / text

‹ back to catalog

STARLINK-32489

NORAD 61893 · 2024-204V

PAYLOAD ACTIVE UNKNOWN

§ Identity

Operator
Country
US
Launch date
2024-11-09
Launch site
AFWTR
Launch vehicle
Mass (kg)
RCS (m²)

Purposes: comms

External: N2YO · Heavens-Above · Gunter

§ Orbital elements

Epoch: 2026-09-21T18:32:39.605568Z

Period
93.85 min
Inclination
53.1642°
Eccentricity
0.0001137
Mean motion
15.34418736 rev/d
Perigee alt
461.9 km
Apogee alt
463.4 km
Semi-major
6,840.8 km
B*
-2.8609e-4
RAAN
291.6939°
Arg perigee
146.1342°
Mean anomaly
213.9733°
Rev number
10,517

§ Raw data

STARLINK-324891 61893U 24204V   26264.77268062 -.00010035  00000+0 -28609-3 0  99952 61893  53.1642 291.6939 0001137 146.1342 213.9733 15.34418736105176

JSON: /api/v1/satellites/61893 · /tle

For live sub-satellite position, see the globe view (requires WebGL).

§ Visibility from observer

Set your observer location to see the next 7 days of passes ≥ 10°. The values pass through the URL so the page stays shareable.

No JS? Fill the form by hand. The geolocation button needs JavaScript.